カタログに戻る

OOV-CUBE

運用中アマチュア無線VLEO
NORAD 60240·PAYLOAD·🇩🇪 Germany

打ち上げ Jul 9, 2024 から Guiana Space Centre

Loading…

次のパス (今後24時間)

TLE

最新Source: Space-Track

元期: Sep 13, 2026, 13:01 UTC

1 60240U 24128F   26256.54282977  .00001228  00000-0  10524-3 0  9992
2 60240  61.9931 277.4049 0032208 154.2894 205.9807 15.03092161119396

AllMySatでOOV-CUBEをリアルタイム追跡

Download on the App Store